Flag for U.S.A. Weather past 2 weeks in Denver, Colorado, U.S.A.

Now
75 °F

More clouds than sun.


Feels Like: 77 °F
Forecast: 63 / 84 °F
Wind: 9 mph from Southeast

Location: Buckley Air Force Base

Current Time: Aug 2, 2015 at 8:39:10 PM

Latest Report: Aug 2, 2015 at 7:58 PM


Visibility: 10 mi

Pressure: 29.88 "Hg (24.87 "Hg at 1593m altitude)

Humidity: 41%

Dew point: 49 °F

Location of DenverLocation

Historic Weather in Denver — Graph

°F

Denver temperature yesterday

Maximum temperature yesterday: 93 °F (at 2:58 PM)
Minimum temperature yesterday: 66 °F (at 6:58 AM)
Average temperature yesterday: 78 °F

Past Weeks' High & Low Weather Summary

 TemperatureHumidityPressure
High93 °F (Aug 1, 2:58 PM)100% (Jul 19, 2:58 AM)30.17 "Hg (Jul 19, 2:58 AM)
Low54 °F (Jul 19, 5:58 AM)15% (Aug 1, 2:58 PM)29.59 "Hg (Jul 27, 5:58 PM)
Average73 °F49%29.93 "Hg
* Reported Jul 18 6:58 PM — Aug 2 6:58 PM, Denver, Weather by CustomWeather, © 2015

Note: Actual official high and low records may vary slightly from our data, if they occured in-between our weather recording intervals... More about our weather records

Advertising

Denver weather history for previous 24 hours

 ConditionsComfort  
Time TempWeatherWind HumidityBarometerVisibility
6:58 PM
Sun, Aug 2
72 °FBroken clouds.17 mph44%29.86 "Hg10 mi
5:58 PM69 °FPartly sunny.12 mph53%29.90 "Hg10 mi
4:58 PM67 °FThundershowers. Partly sunny.20 mph62%29.96 "Hg10 mi
3:58 PM66 °FThunderstorms. Partly sunny.16 mph74%29.94 "Hg10 mi
2:58 PM84 °FThunderstorms. Partly sunny.20 mph26%29.84 "Hg10 mi
1:58 PM89 °FBroken clouds.6 mph19%29.83 "Hg10 mi
12:58 PM91 °FBroken clouds.13 mph19%29.81 "Hg10 mi
11:58 AM89 °FBroken clouds.5 mph21%29.83 "Hg10 mi
10:58 AM84 °FBroken clouds.2 mph29%29.87 "Hg10 mi
9:58 AM80 °FScattered clouds.5 mph34%29.88 "Hg10 mi
8:58 AM74 °FScattered clouds.6 mph46%29.89 "Hg10 mi
7:58 AM70 °FBroken clouds.5 mph55%29.89 "Hg10 mi
6:58 AM63 °FBroken clouds.3 mph65%29.88 "Hg10 mi
5:58 AM62 °FPartly cloudy.5 mph63%29.87 "Hg10 mi
4:58 AM64 °FPartly cloudy.5 mph56%29.86 "Hg10 mi
3:58 AM66 °FPassing clouds.7 mph52%29.85 "Hg10 mi
2:58 AM68 °FPassing clouds.9 mph50%29.84 "Hg10 mi
1:58 AM72 °FPartly cloudy.10 mph42%29.83 "Hg10 mi
12:58 AM74 °FPartly cloudy.13 mph39%29.85 "Hg10 mi
11:58 PM
Sat, Aug 1
74 °FPartly cloudy.16 mph38%29.85 "Hg10 mi
10:58 PM73 °FPassing clouds.20 mph42%29.86 "Hg10 mi
9:58 PM72 °FPassing clouds.22 mph45%29.88 "Hg10 mi
8:58 PM73 °FScattered clouds.29 mph45%29.85 "Hg10 mi
Weather by CustomWeather, © 2015

See weather overviewHow to use our weather pages